Overview Statistics Trail Chart Weather Telemetry Raw packets
 

This is the latest recevied weather packets stored in our database for station/object WD7OO. If no packets are shown the sender has not sent any weather packets the latest 10 day(s).

<< 62 63 64 65 66 67 68 >>
Time Temp. Humidity Pressure Rain* Wind** Luminosity Snow
1788195093 22.22° C 99% 1018.2 hPa 1.78 mm - 154 W/m² -
1788194789 22.22° C 98% 1018.3 hPa 1.78 mm - 80 W/m² -
1788194485 22.22° C 98% 1018.1 hPa 0 mm - 55 W/m² -
1788194180 21.67° C 99% 1018.2 hPa 0 mm - 101 W/m² -
1788193876 21.67° C 99% 1018 hPa 0 mm - 173 W/m² -
1788193592 21.67° C 99% 1017.9 hPa 0 mm - 142 W/m² -
1788193272 21.67° C 99% 1017.9 hPa 0 mm - 159 W/m² -
1788192968 21.67° C 99% 1017.6 hPa 0 mm - 190 W/m² -
1788192665 21.67° C 99% 1017.6 hPa 0 mm - 143 W/m² -
1788192364 21.11° C 99% 1017.8 hPa 0 mm - 94 W/m² -
1788192059 21.67° C 99% 1017.8 hPa 0 mm - 75 W/m² -
1788191754 21.11° C 99% 1017.8 hPa 0 mm - 61 W/m² -
1788191449 21.11° C 99% 1017.7 hPa 0 mm - 62 W/m² -
1788191145 21.11° C 99% 1017.5 hPa 0 mm - 92 W/m² -
1788190844 21.67° C 99% 1017.7 hPa 0 mm - 92 W/m² -
1788190538 21.11° C 99% 1017.9 hPa 1.27 mm - 71 W/m² -
1788190236 21.11° C 99% 1018.2 hPa 1.27 mm - 63 W/m² -
1788189931 21.11° C 99% 1018.2 hPa 0 mm - 42 W/m² -
1788189627 21.11° C 99% 1018.4 hPa 0 mm - 41 W/m² -
1788189326 21.11° C 99% 1018.2 hPa 1.78 mm - 45 W/m² -
1788189026 21.11° C 99% 1018.2 hPa 1.78 mm - 50 W/m² -
1788188721 21.11° C 99% 1018.2 hPa 0 mm - 57 W/m² -
1788188417 21.67° C 99% 1018.2 hPa 0 mm - 63 W/m² -
1788188111 21.11° C 99% 1018.2 hPa 0 mm - 56 W/m² -
1788187807 21.11° C 99% 1018.2 hPa 0 mm - 49 W/m² -

* Rain latest hour (hover to see other rain measurements)
** Current wind speed in m/s (hover to see current wind gust speed)